Weather History for Rickenbacker, OH

Change the Weather History Date:

Tuesday, November 5, 2013

  Actual Average Record
Temperature  
Mean Temperature 56 °F -  
Max Temperature 63 °F 55 °F 73 °F (2003)
Min Temperature 50 °F 37 °F 30 °F (2011)
Degree Days  
Heating Degree Days 8    
Growing Degree Days 6 (Base 50)    
Moisture  
Dew Point 35 °F    
Average Humidity 49    
Maximum Humidity 64    
Minimum Humidity 34    
Precipitation  
Precipitation 0.00 in - - ()
Sea Level Pressure  
Sea Level Pressure 30.36 in    
Wind  
Wind Speed 4 mph (SSE)    
Max Wind Speed 10 mph    
Max Gust Speed -    
Visibility 10 miles    
Events Rain    
Averages and records for this station are not official NWS values.
T = Trace of Precipitation, MM = Missing Value Source: NWS Daily Summary

Daily Weather History Graph

Daily Weather History Graph

Search for Another Location

Airport:

Trip Planner

Search our weather history database for the weather conditions in past years. The results will help you decide how hot, cold, wet, or windy it might be!

Date:

Astronomy

Nov. 05, 2013 Rise Set
Actual Time 7:05 AM EST 5:24 PM EST
Civil Twilight 6:36 AM EST 5:53 PM EST
Nautical Twilight 6:04 AM EST 6:25 PM EST
Astronomical Twilight 5:33 AM EST 6:56 PM EST
Moon 9:18 AM EST (11/5) 7:25 PM EST (11/5)
Length of Visible Light 11h 16m
Length of Day
10h 19m
Waxing Crescent, 6% of the Moon is Illuminated
Nov 5
Waxing Crescent
Nov 10
First Quarter
Nov 17
Full
Nov 25
Last Quarter
Dec 2
New

Hourly Weather History & Observations

Time (EST) Temp. Dew Point Humidity Pressure Visibility Wind Dir Wind Speed Gust Speed Precip Events Conditions
12:15 AM 51.1 °F 36.9 °F 58% 30.36 in 10.0 mi Calm Calm - N/A   Clear
12:35 AM 51.3 °F 36.7 °F 57% 30.37 in 10.0 mi Calm Calm - N/A   Scattered Clouds
12:55 AM 50.9 °F 36.9 °F 59% 30.36 in 10.0 mi Calm Calm - N/A   Scattered Clouds
1:15 AM 50.9 °F 36.9 °F 59% 30.37 in 10.0 mi SSE 3.5 mph - N/A   Clear
1:35 AM 50.5 °F 37.2 °F 60% 30.37 in 10.0 mi Calm Calm - N/A   Clear
1:55 AM 50.2 °F 37.6 °F 62% 30.37 in 10.0 mi Calm Calm - N/A   Clear
2:15 AM 50.0 °F 38.1 °F 64% 30.37 in 10.0 mi Calm Calm - N/A   Clear
2:35 AM 50.4 °F 37.4 °F 61% 30.38 in 10.0 mi Calm Calm - N/A   Clear
2:55 AM 51.1 °F 36.0 °F 56% 30.37 in 10.0 mi SE 3.5 mph - N/A   Scattered Clouds
3:15 AM 50.9 °F 36.3 °F 57% 30.37 in 10.0 mi SE 5.8 mph - N/A   Mostly Cloudy
3:35 AM 51.1 °F 35.8 °F 56% 30.37 in 10.0 mi SSE 3.5 mph - N/A   Overcast
3:55 AM 51.3 °F 35.2 °F 54% 30.38 in 10.0 mi SSE 5.8 mph - N/A   Overcast
4:15 AM 51.3 °F 35.1 °F 54% 30.38 in 10.0 mi SSE 3.5 mph - N/A   Overcast
4:35 AM 50.9 °F 35.6 °F 56% 30.38 in 10.0 mi SSE 5.8 mph - N/A   Overcast
4:55 AM 51.1 °F 35.4 °F 55% 30.38 in 10.0 mi SSE 6.9 mph - N/A   Overcast
5:15 AM 51.4 °F 34.7 °F 53% 30.39 in 10.0 mi South 8.1 mph - N/A   Overcast
5:35 AM 51.1 °F 34.9 °F 54% 30.40 in 10.0 mi South 5.8 mph - N/A Rain Light Rain
5:55 AM 50.9 °F 35.2 °F 55% 30.40 in 10.0 mi South 6.9 mph - N/A   Overcast
6:15 AM 51.1 °F 35.1 °F 54% 30.40 in 10.0 mi South 3.5 mph - N/A   Mostly Cloudy
6:35 AM 50.7 °F 34.9 °F 55% 30.41 in 10.0 mi South 6.9 mph - N/A   Overcast
6:55 AM 50.9 °F 34.7 °F 54% 30.40 in 10.0 mi South 3.5 mph - N/A   Overcast
7:15 AM 50.5 °F 35.2 °F 56% 30.40 in 10.0 mi SSE 3.5 mph - N/A   Overcast
7:35 AM 50.4 °F 35.6 °F 57% 30.40 in 10.0 mi Calm Calm - N/A   Overcast
7:55 AM 50.7 °F 34.9 °F 55% 30.40 in 10.0 mi SE 4.6 mph - N/A   Mostly Cloudy
8:15 AM 50.9 °F 34.9 °F 54% 30.42 in 10.0 mi SSE 4.6 mph - N/A   Mostly Cloudy
8:35 AM 51.1 °F 35.2 °F 55% 30.41 in 10.0 mi SSE 9.2 mph - N/A   Mostly Cloudy
8:55 AM 52.0 °F 34.3 °F 51% 30.43 in 10.0 mi South 5.8 mph - N/A   Mostly Cloudy
9:15 AM 52.5 °F 34.0 °F 49% 30.43 in 10.0 mi South 10.4 mph - N/A   Overcast
9:35 AM 53.1 °F 33.8 °F 48% 30.42 in 10.0 mi South 9.2 mph - N/A   Overcast
9:55 AM 53.6 °F 34.0 °F 47% 30.43 in 10.0 mi South 10.4 mph - N/A   Overcast
10:15 AM 54.5 °F 34.2 °F 46% 30.43 in 10.0 mi South 6.9 mph - N/A   Scattered Clouds
10:35 AM 56.1 °F 34.2 °F 44% 30.44 in 10.0 mi SSW 9.2 mph - N/A   Mostly Cloudy
10:55 AM 56.8 °F 34.3 °F 43% 30.42 in 10.0 mi SSE 6.9 mph - N/A   Scattered Clouds
11:15 AM 57.4 °F 34.7 °F 43% 30.43 in 10.0 mi South 6.9 mph - N/A   Clear
11:35 AM 57.9 °F 35.2 °F 43% 30.43 in 10.0 mi South 8.1 mph - N/A   Scattered Clouds
11:55 AM 58.5 °F 34.7 °F 41% 30.41 in 10.0 mi South 4.6 mph - N/A   Clear
12:15 PM 58.6 °F 35.2 °F 42% 30.40 in 10.0 mi South 6.9 mph - N/A   Clear
12:35 PM 59.9 °F 35.4 °F 40% 30.40 in - SSW 6.9 mph - N/A   Clear
12:55 PM 60.8 °F 35.4 °F 39% 30.39 in 10.0 mi South 6.9 mph - N/A   Clear
1:15 PM 62.1 °F 35.8 °F 38% 30.38 in 10.0 mi South 6.9 mph - N/A   Clear
1:35 PM 63.3 °F 35.1 °F 35% 30.38 in 10.0 mi South 5.8 mph - N/A   Clear
1:55 PM 62.6 °F 34.0 °F 34% 30.37 in 10.0 mi South 6.9 mph - N/A   Clear
2:15 PM 61.7 °F 34.9 °F 37% 30.35 in 10.0 mi South 5.8 mph - N/A   Clear
2:35 PM 62.1 °F 34.9 °F 36% 30.34 in 10.0 mi South 6.9 mph - N/A   Clear
2:55 PM 63.3 °F 34.5 °F 34% 30.33 in 10.0 mi South 6.9 mph - N/A   Clear
3:15 PM 63.3 °F 34.5 °F 34% 30.34 in 10.0 mi South 9.2 mph - N/A   Clear
3:35 PM 63.9 °F 34.5 °F 34% 30.33 in 10.0 mi South 10.4 mph - N/A   Clear
3:55 PM 63.0 °F 34.5 °F 35% 30.33 in 10.0 mi SSE 10.4 mph - N/A   Clear
4:15 PM 61.5 °F 34.5 °F 36% 30.32 in 10.0 mi SSE 6.9 mph - N/A   Clear
4:35 PM 61.0 °F 35.2 °F 38% 30.32 in 10.0 mi SSE 5.8 mph - N/A   Clear
4:55 PM 59.9 °F 36.1 °F 41% 30.32 in 10.0 mi SSE 4.6 mph - N/A   Clear
5:15 PM 59.2 °F 35.2 °F 41% 30.31 in 10.0 mi SSE 6.9 mph - N/A   Clear
5:35 PM 59.0 °F 34.2 °F 39% 30.30 in 10.0 mi SE 6.9 mph - N/A   Clear
5:55 PM 58.3 °F 34.9 °F 41% 30.30 in 10.0 mi SSE 6.9 mph - N/A   Scattered Clouds
6:15 PM 57.6 °F 35.6 °F 44% 30.31 in 10.0 mi SSE 4.6 mph - N/A   Clear
6:35 PM 57.0 °F 36.1 °F 46% 30.31 in 10.0 mi Calm Calm - N/A   Clear
6:55 PM 57.0 °F 35.8 °F 45% 30.31 in 10.0 mi SE 5.8 mph - N/A   Clear
7:15 PM 56.5 °F 35.4 °F 45% 30.30 in 10.0 mi SE 5.8 mph - N/A   Clear
7:35 PM 55.2 °F 35.1 °F 47% 30.30 in 10.0 mi SE 5.8 mph - N/A   Clear
7:55 PM 54.1 °F 35.4 °F 49% 30.30 in 10.0 mi SE 5.8 mph - N/A   Clear
8:15 PM 54.3 °F 35.2 °F 49% 30.29 in 10.0 mi SE 4.6 mph - N/A   Clear
8:35 PM 53.1 °F 35.2 °F 51% 30.29 in 10.0 mi SE 4.6 mph - N/A   Clear
8:55 PM 52.5 °F 35.2 °F 52% 30.29 in 10.0 mi SSE 4.6 mph - N/A   Clear
9:15 PM 52.5 °F 35.2 °F 52% 30.29 in 10.0 mi SSE 4.6 mph - N/A   Clear
9:35 PM 51.8 °F 35.4 °F 54% 30.29 in 10.0 mi SSE 3.5 mph - N/A   Clear
9:55 PM 51.6 °F 35.6 °F 54% 30.29 in 10.0 mi SSE 4.6 mph - N/A   Clear
10:15 PM 51.4 °F 35.4 °F 54% 30.28 in 10.0 mi SE 4.6 mph - N/A   Clear
10:35 PM 51.6 °F 35.1 °F 53% 30.27 in 10.0 mi SSE 5.8 mph - N/A   Clear
10:55 PM 50.7 °F 34.9 °F 55% 30.27 in 10.0 mi SSE 4.6 mph - N/A   Clear
11:15 PM 50.7 °F 34.5 °F 54% 30.26 in 10.0 mi SE 5.8 mph - N/A   Clear
11:35 PM 50.4 °F 34.5 °F 55% 30.26 in 10.0 mi SE 5.8 mph - N/A   Clear
11:55 PM 50.0 °F 34.2 °F 55% 30.25 in 10.0 mi SE 4.6 mph - N/A   Clear